Regional Weather Roundup
Issued by NWS

Home | Current Version | Previous Version | Text Only | Print | Product List | Glossary On
Versions: 1 2 3 4 5 6 7 8 9 10 11 12 13 14 15 16 17 18 19 20 21 22 23 24 25 26 27 28 29 30 31 32 33 34 35 36 37 38 39 40 41 42 43 44 45 46 47 48 49 50
000
ASUS43 KOAX 300302
RWRNE

WEATHER ROUNDUP FOR NEBRASKA
NATIONAL WEATHER SERVICE OMAHA NE
1000 PM CDT FRI AUG 29 2014

NOTES: SATELLITE DATA IS BEING USED TO AUGMENT CLOUD COVER ABOVE
       12000 FEET.
       "FAIR" INDICATES FEW OR NO CLOUDS BELOW 12,000 FEET WITH NO
       SIGNIFICANT WEATHER AND/OR OBSTRUCTIONS TO VISIBILITY.

  * THESE STATIONS DO NOT REPORT WEATHER SUCH AS RAIN...SNOW OR FOG.

NEZ001>004-019>022-054>056-300400-
NEBRASKA PANHANDLE

CITY           SKY/WX    TMP DP  RH WIND       PRES   REMARKS
SCOTTSBLUFF    CLEAR     63  58  83 E6        30.06R
ALLIANCE       CLEAR     60  54  80 E7        30.06R
CHADRON        CLEAR     62  55  77 CALM      30.02R
KIMBALL        MOCLDY    65  54  66 S6        30.11R
SIDNEY         MOCLDY    66  53  63 E7        30.09R
$$

NEZ057>060-069>072-079>082-300400-
SOUTHWEST NEBRASKA

CITY           SKY/WX    TMP DP  RH WIND       PRES   REMARKS
NORTH PLATTE   CLEAR     66  60  81 NE6       30.00R
IMPERIAL       CLEAR     68  57  68 NE10      30.02R
LEXINGTON      MOCLDY    68  58  70 NE10G17   29.97R
MCCOOK         CLEAR     69  58  67 N8        29.97R
OGALLALA       CLEAR     63  56  79 NE8       30.04R
$$

NEZ005>010-023>029-035>040-094-300400-
NORTH CENTRAL NEBRASKA

CITY           SKY/WX    TMP DP  RH WIND       PRES   REMARKS
VALENTINE      CLEAR     63  58  83 CALM      29.99R
AINSWORTH      PTCLDY    65  58  75 NW7       29.99R
BROKEN BOW     CLOUDY    61  59  93 N3        29.97R
O`NEILL        CLOUDY    66  63  92 S5        29.92R
ORD            LGT RAIN  65  62  90 NW5       29.93R
THEDFORD       CLEAR     65  58  79 NW5       30.02R
$$

NEZ041-046>049-061>064-073>077-083>087-300400-
SOUTH CENTRAL NEBRASKA

CITY           SKY/WX    TMP DP  RH WIND       PRES   REMARKS
GRAND ISLAND   CLEAR     68  64  87 CALM      29.90R
AURORA         CLEAR     64  64 100 W3        29.89R
HASTINGS       CLEAR     68  62  81 N3        29.91R
HEBRON         PTCLDY    69  65  85 NW3       29.88R
HOLDREGE       CLOUDY    69  65  87 CALM      29.95R
KEARNEY *      PTCLDY    72  63  73 NW8       29.94R
YORK           CLEAR     64 N/A N/A W5        29.89R
$$

NEZ011>018-030>034-042>045-300400-
NORTHEAST NEBRASKA

CITY           SKY/WX    TMP DP  RH WIND       PRES   REMARKS
NORFOLK        PTCLDY    67  62  84 NW5       29.87R
ALBION         MOCLDY    67  65  91 NW9G18    29.91R
BLAIR          PTCLDY    69  66  91 W6        29.82R
FREMONT        PTCLDY    69  66  90 W5        29.85R
TEKAMAH        CLOUDY    68  67  96 CALM      29.82R FOG
WAYNE          PTCLDY    65  63  94 CALM      29.85R
$$

NEZ050>053-065>068-078-088>093-300400-
SOUTHEAST NEBRASKA

CITY           SKY/WX    TMP DP  RH WIND       PRES   REMARKS
LINCOLN        PTCLDY    70  66  87 CALM      29.84R
OMAHA EPPLEY   MOCLDY    69  66  90 W3        29.81R
BEATRICE       CLEAR     69  67  96 N8        29.85R
FALLS CITY     CLEAR     72  70  93 NW6       29.81R
NEBRASKA CITY  MOCLDY    69  69 100 W7        29.82S
PLATTSMOUTH    MOCLDY    70  66  88 W6        29.81S
$$

NEZ044-045-051>053-067-300400-
OMAHA AREA

CITY           SKY/WX    TMP DP  RH WIND       PRES   REMARKS
OMAHA EPPLEY   MOCLDY    69  66  90 W3        29.81R
BLAIR          PTCLDY    69  66  91 W6        29.82R
FREMONT        PTCLDY    69  66  90 W5        29.85R
MILLARD        PTCLDY    69  66  90 W3        29.82R
OFFUTT AFB     PTCLDY    68  68 100 SW3       29.81R
PLATTSMOUTH    MOCLDY    70  66  88 W6        29.81S
WAHOO          FAIR      69  66  89 W6        29.83R
$$



USA.gov is the U.S. government's official web portal to all federal, state and local government web resources and services.